Hourly Data Report for September 17, 2017

All times are specified in Local Standard Time (LST). Add 1 hour to adjust for Daylight Saving Time where and when it is observed.

SAINT JOHN A
NEW BRUNSWICK

45°18'58.000" N
65°53'24.000" W
108.80 m
8104901
71609
YSJ

Download Data

Hourly Data (September 2017)
Hourly Data Report for September 17, 2017
Temp Definition
°C
Dew Point Temp Definition
°C
Rel Hum Definition
%
Wind Dir Definition
10's deg

Wind Spd Definition
km/h
Visibility Definition
km
Stn Press Definition
kPa
Hmdx Definition


Wind Chill Definition


Weather Definition


TIME
00:00 Legend Double Dagger 15.1 14.6 97 9 14 3.2 100.83     Fog
01:00 Legend Double Dagger 14.8 14.2 96 11 14 24.1 100.84     LegendNANA
02:00 Legend Double Dagger 14.8 14.2 96 4 7 24.1 100.84     Cloudy
03:00 Legend Double Dagger 14.8 14.4 98 7 4 4.8 100.81     Fog
04:00 Legend Double Dagger 14.6 14.2 97 12 4 4.8 100.82     Fog
05:00 Legend Double Dagger 14.6 13.9 96 13 6 8.1 100.87     Fog
06:00 Legend Double Dagger 14.5 13.8 95 12 5 16.1 100.88     LegendNANA
07:00 Legend Double Dagger 14.5 13.6 94 9 3 12.9 100.90     LegendNANA
08:00 Legend Double Dagger 14.5 13.9 97 14 8 3.2 100.93     Fog
09:00 Legend Double Dagger 15.2 14.6 96 9 5 4.0 100.99     Fog
10:00 Legend Double Dagger 16.2 15.3 94 18 7 3.2 100.96     Fog
11:00 Legend Double Dagger 15.9 14.9 94 19 8 4.0 100.98     Fog
12:00 Legend Double Dagger 16.9 15.1 89 17 10 12.9 100.93     LegendNANA
13:00 Legend Double Dagger 17.6 15.4 87 13 8 12.9 100.87     LegendNANA
14:00 Legend Double Dagger 18.8 15.4 81 21 17 24.1 100.84     Mostly Cloudy
15:00 Legend Double Dagger 17.4 14.8 85 22 12 24.1 100.85     LegendNANA
16:00 Legend Double Dagger 18.2 15.3 83 17 8 24.1 100.81     LegendNANA
17:00 Legend Double Dagger 16.3 14.7 90 19 14 19.3 100.83     Mostly Cloudy
18:00 Legend Double Dagger 14.7 14.1 97 20 12 0.8 100.87     Fog
19:00 Legend Double Dagger 14.0 13.8 98 21 7 0.6 100.87     Fog
20:00 Legend Double Dagger 13.4 13.2 99 21 9 0.6 100.87     Fog
21:00 Legend Double Dagger 12.8 12.7 99 17 8 0.6 100.92     Fog
22:00 Legend Double Dagger 12.9 12.8 99 18 5 0.4 100.94     Fog
23:00 Legend Double Dagger 12.9 12.8 99 16 6 0.4 100.95     Fog

Notes on Data Quality.

Legend

  • E = Estimated
  • M = Missing
  • NA = Not Available
  • ‡ = Partner data that is not subject to review by the National Climate Archives
Date modified: